Weather History for KDFW - December, 2013

Change the Weather History Date:

Monday, December 2, 2013

  Actual Average Record
Temperature  
Mean Temperature 55 °F 50 °F  
Max Temperature 70 °F 60 °F 83 °F (2012)
Min Temperature 40 °F 40 °F 19 °F (1985)
Degree Days  
Heating Degree Days 10 15  
Month to date heating degree days 15 30  
Since 1 July heating degree days 416 384  
Cooling Degree Days 0 0  
Month to date cooling degree days 0 0  
Year to date cooling degree days 2930 2752  
Growing Degree Days 4 (Base 50)    
Moisture  
Dew Point 46 °F    
Average Humidity 72    
Maximum Humidity 96    
Minimum Humidity 47    
Precipitation  
Precipitation 0.00 in 0.08 in 2.53 in (1913)
Month to date precipitation 0.00 0.16  
Year to date precipitation 26.64 33.75  
Snow  
Snow 0.00 in 0.00 in T in (2009)
Month to date snowfall 0.0 0.0  
Since 1 July snowfall T T  
Snow Depth 0.00 in    
Sea Level Pressure  
Sea Level Pressure 29.75 in    
Wind  
Wind Speed 3 mph (SSW)    
Max Wind Speed 10 mph    
Max Gust Speed 13 mph    
Visibility 10 miles    
Events Fog    
T = Trace of Precipitation, MM = Missing Value Source: NWS Daily Summary

Daily Weather History Graph

Daily Weather History Graph

Search for Another Location

Airport or City:

Trip Planner

Search our weather history database for the weather conditions in past years. The results will help you decide how hot, cold, wet, or windy it might be!

Date:

Astronomy

Dec. 02, 2013 Rise Set
Actual Time 7:13 AM CST 5:21 PM CST
Civil Twilight 6:46 AM CST 5:48 PM CST
Nautical Twilight 6:16 AM CST 6:18 PM CST
Astronomical Twilight 5:46 AM CST 6:48 PM CST
Moon 6:42 AM CST (12/2) 5:23 PM CST (12/2)
Length of Visible Light 11h 01m
Length of Day
10h 07m
Waning Crescent, 0% of the Moon is Illuminated
Dec 2
Waning Crescent
Dec 2
New
Dec 9
First Quarter
Dec 17
Full
Dec 25
Last Quarter

Hourly Weather History & Observations

Time (CST) Temp. Dew Point Humidity Pressure Visibility Wind Dir Wind Speed Gust Speed Precip Events Conditions
12:53 AM 51.1 °F 46.0 °F 83% 29.88 in 10.0 mi NW 8.1 mph - N/A   Mostly Cloudy
1:53 AM 52.0 °F 45.0 °F 77% 29.85 in 10.0 mi WNW 8.1 mph - N/A   Scattered Clouds
2:53 AM 48.0 °F 44.1 °F 86% 29.84 in 10.0 mi WSW 4.6 mph - N/A   Mostly Cloudy
3:53 AM 48.0 °F 45.0 °F 89% 29.83 in 10.0 mi WSW 4.6 mph - N/A   Scattered Clouds
4:53 AM 46.9 °F 43.0 °F 86% 29.81 in 10.0 mi Calm Calm - N/A   Clear
5:53 AM 44.1 °F 39.9 °F 85% 29.80 in 10.0 mi Calm Calm - N/A   Partly Cloudy
6:53 AM 42.1 °F 39.9 °F 92% 29.81 in 9.0 mi Calm Calm - N/A   Scattered Clouds
7:53 AM 42.1 °F 41.0 °F 96% 29.81 in 7.0 mi Calm Calm - N/A Fog Patches of Fog
8:53 AM 52.0 °F 46.9 °F 83% 29.81 in 10.0 mi Calm Calm - N/A   Partly Cloudy
9:53 AM 55.9 °F 46.9 °F 72% 29.81 in 10.0 mi Calm Calm - N/A   Partly Cloudy
10:53 AM 59.0 °F 48.0 °F 67% 29.79 in 10.0 mi Variable 4.6 mph - N/A   Partly Cloudy
11:53 AM 63.0 °F 48.9 °F 60% 29.76 in 10.0 mi South 4.6 mph - N/A   Partly Cloudy
12:53 PM 66.0 °F 46.9 °F 50% 29.72 in 10.0 mi SSE 6.9 mph - N/A   Scattered Clouds
1:53 PM 68.0 °F 48.0 °F 49% 29.68 in 10.0 mi South 6.9 mph - N/A   Partly Cloudy
2:53 PM 69.1 °F 48.0 °F 47% 29.68 in 10.0 mi Calm Calm - N/A   Partly Cloudy
3:53 PM 69.1 °F 48.9 °F 49% 29.66 in 10.0 mi SSW 10.4 mph - N/A   Partly Cloudy
4:53 PM 66.0 °F 48.0 °F 52% 29.67 in 10.0 mi South 5.8 mph - N/A   Partly Cloudy
5:53 PM 62.1 °F 48.0 °F 60% 29.68 in 10.0 mi Calm Calm - N/A   Partly Cloudy
6:53 PM 60.1 °F 46.9 °F 62% 29.69 in 10.0 mi NE 3.5 mph - N/A   Partly Cloudy
7:53 PM 55.0 °F 46.0 °F 72% 29.69 in 10.0 mi Calm Calm - N/A   Partly Cloudy
8:53 PM 52.0 °F 46.0 °F 80% 29.68 in 10.0 mi SE 3.5 mph - N/A   Partly Cloudy
9:53 PM 54.0 °F 46.9 °F 77% 29.66 in 10.0 mi Calm Calm - N/A   Partly Cloudy
10:53 PM 53.1 °F 45.0 °F 74% 29.67 in 10.0 mi Calm Calm - N/A   Partly Cloudy
11:53 PM 50.0 °F 43.0 °F 77% 29.66 in 10.0 mi SW 3.5 mph - N/A   Partly Cloudy